Wind_Speed
33 33 34 35 36 38 40 42 42 41 42 43 41 40 40 39 38 38 37 36 36 36 37 38 38 37 37 37 37 38 38 38 39 39 40 41 42 43 43 44 44 45 45
36 37 37 38 39 40 41 42 43 43 43 44 43 43 43 41 39 38 38 37 37 37 37 38 38 38 38 38 38 38 38 40 40 41 41 42 42 43 44 45 46 47 48
40 41 42 43 43 43 44 44 44 45 45 45 46 45 43 42 41 40 39 38 38 38 38 38 39 39 39 39 39 39 39 40 41 42 43 44 44 44 44 46 47 48 50
44 45 46 47 48 48 48 47 47 48 48 48 48 47 45 44 43 42 40 39 39 39 39 39 40 40 40 40 40 40 40 40 41 42 44 45 46 46 46 47 48 50 51
48 49 50 50 51 52 52 52 51 51 50 49 49 48 47 46 45 43 42 40 40 39 39 40 40 40 40 40 41 41 41 42 42 43 44 46 47 48 49 49 50 52 53
49 50 51 52 53 54 55 55 55 54 52 51 50 49 48 47 46 45 43 42 40 40 40 40 40 40 40 41 41 42 42 43 44 45 46 47 49 50 51 52 52 53 55
49 49 50 51 52 53 54 55 56 55 54 53 51 50 49 48 47 46 44 42 41 40 40 40 40 40 40 41 42 43 43 45 46 47 48 49 51 52 53 55 56 57 57
49 50 50 50 51 52 53 54 55 56 55 54 52 51 49 48 47 46 45 43 41 41 40 40 40 40 40 41 43 44 45 46 47 48 49 51 52 54 55 58 60 61 61
49 49 50 50 50 51 52 52 54 55 55 54 53 51 49 48 47 47 45 43 41 41 40 40 40 40 41 41 43 44 46 47 48 49 50 52 53 55 57 60 62 65 66
47 48 49 50 50 50 51 52 52 53 54 54 53 50 48 47 47 46 45 43 42 41 40 40 40 41 41 42 43 45 46 47 48 50 52 53 55 57 60 62 64 67 69
46 47 48 49 49 50 50 51 50 52 52 51 50 49 48 47 46 45 44 43 41 40 40 40 40 40 41 43 44 45 47 48 49 51 53 55 57 60 62 64 66 68 70
45 46 47 47 47 47 48 49 49 49 48 48 47 47 46 46 45 44 43 41 40 39 39 39 40 40 42 43 45 46 47 49 50 53 55 57 60 62 64 66 68 70 71
42 43 43 42 41 41 43 45 46 45 45 45 44 44 43 43 43 42 41 40 39 39 39 39 40 41 43 44 45 46 48 50 52 54 57 59 62 64 66 68 69 70 72
38 38 37 35 34 34 35 39 40 41 41 41 41 41 40 40 39 39 38 38 38 38 38 38 39 41 43 44 45 46 49 51 54 56 59 61 64 66 67 68 70 72 73
31 29 27 24 23 24 27 31 35 36 37 37 37 37 37 36 36 36 35 36 36 37 37 38 40 41 43 44 45 47 50 53 56 58 61 63 65 67 68 69 71 73 76
23 19 16 13 14 18 22 26 31 33 34 33 33 32 32 32 32 33 33 34 34 35 36 38 40 41 43 44 46 49 52 55 57 60 62 64 66 67 68 70 73 77 82
15 10 5 4 10 15 20 24 27 29 29 29 29 28 29 29 29 30 31 32 33 35 37 38 40 41 43 45 48 51 54 56 59 61 63 64 65 67 69 72 76 82 88
12 7 4 7 12 16 20 22 25 25 26 25 25 25 25 26 26 27 29 31 33 35 36 38 40 42 44 47 50 52 55 58 60 62 63 65 67 69 72 75 80 85 89
10 9 9 12 14 17 18 20 21 21 21 21 21 21 22 23 25 27 29 30 32 34 36 38 40 43 46 48 51 54 56 58 60 61 64 66 69 72 76 80 84 87 86
9 10 11 13 16 17 18 17 17 17 17 17 17 18 20 22 24 25 27 29 32 34 36 38 41 44 47 50 53 55 57 58 59 62 65 69 73 77 81 84 86 84 78
8 10 11 12 13 13 14 15 14 14 14 15 16 17 19 21 23 25 27 29 31 34 36 40 43 46 49 51 54 55 57 58 60 63 67 72 76 80 84 86 83 77 68
6 8 9 10 11 11 12 12 12 12 14 14 15 17 19 20 22 24 26 29 32 35 38 41 44 47 50 51 53 55 57 60 63 67 71 76 80 83 84 81 75 66 57
3 5 7 8 8 8 9 10 11 12 12 13 14 16 17 19 21 24 27 30 34 37 40 42 45 48 50 51 53 56 59 63 67 71 75 78 81 82 78 72 63 54 47
1 2 4 5 6 7 7 7 7 8 10 11 13 15 17 20 23 26 29 33 35 38 41 44 45 47 50 52 54 58 62 66 70 73 76 79 79 75 68 59 51 45 42
1 1 2 3 4 4 5 5 6 8 9 11 14 17 20 23 26 29 32 34 37 40 42 43 45 48 50 53 57 61 65 69 71 74 76 75 71 64 56 47 42 40 39
2 2 3 3 3 4 5 6 7 9 11 14 17 20 23 26 28 31 34 36 38 40 42 44 47 49 53 56 61 65 68 71 73 74 72 68 62 52 43 38 37 38 38
Wind_Direction
260 260 260 260 260 259 259 259 259 259 259 260 261 262 263 264 265 267 268 271 273 275 278 279 281 281 281 281 282 281 281 281 281 281 283 285 287 288 289 290 292 293 293
261 261 262 261 261 261 260 259 259 258 257 258 259 259 260 262 264 266 267 270 272 275 277 279 280 281 281 282 282 282 283 283 282 283 284 285 287 289 291 292 293 294 295
263 263 263 262 261 260 259 258 257 257 255 255 255 257 259 261 263 265 267 269 271 273 276 279 281 282 282 282 282 283 284 284 284 285 286 286 288 289 290 292 294 295 297
265 265 264 263 262 261 260 258 256 255 254 253 254 255 256 258 260 262 265 267 270 273 275 278 280 281 282 283 283 284 285 286 287 288 288 289 291 292 293 294 295 296 297
266 266 265 264 262 261 260 258 256 254 253 252 252 252 253 254 257 260 262 265 268 271 274 276 279 281 283 284 284 284 286 287 288 289 289 291 293 294 295 296 297 298 299
268 267 265 264 262 260 259 257 256 254 252 251 250 250 251 252 255 257 260 263 266 269 273 276 279 281 283 284 285 286 287 288 289 290 292 293 294 295 296 297 298 299 300
271 269 267 265 263 261 258 256 255 253 251 250 248 248 249 250 252 255 257 261 264 268 271 275 278 281 283 285 287 288 289 290 291 292 293 294 295 297 298 299 300 300 301
274 273 270 267 264 261 258 255 253 251 250 248 247 246 246 247 249 252 255 259 262 266 270 274 278 281 284 286 287 288 289 291 292 293 294 296 297 299 300 301 301 302 302
277 275 273 270 266 262 258 254 251 249 247 246 244 244 244 245 247 250 253 257 261 265 270 274 278 281 284 286 287 289 290 292 293 294 295 297 298 300 301 302 303 303 303
280 279 276 272 268 263 258 253 249 246 243 242 242 241 241 242 245 248 251 255 260 264 269 274 277 282 285 286 287 289 290 292 293 295 296 298 300 302 303 304 304 304 305
286 282 278 274 268 262 256 251 246 243 240 239 238 237 237 240 243 246 250 254 259 264 269 274 278 281 284 286 288 290 291 293 294 296 298 300 302 303 304 304 305 305 305
288 285 282 276 269 261 252 246 242 239 236 234 234 234 234 237 241 245 249 254 259 264 269 274 278 282 285 286 288 290 292 294 296 298 300 301 303 304 305 305 306 306 306
292 290 284 277 268 258 248 240 236 232 230 229 229 230 231 235 239 244 249 254 259 265 270 274 278 282 285 287 288 291 293 295 298 300 301 303 304 305 306 306 307 307 307
297 293 286 277 265 252 241 231 225 222 222 222 223 225 229 233 238 243 249 254 260 266 271 276 280 282 285 288 290 292 295 297 299 301 303 304 305 306 306 307 307 307 308
303 297 287 273 258 243 230 221 214 212 212 215 217 221 226 231 237 244 250 256 262 268 273 277 281 284 287 289 292 294 297 299 301 302 304 305 306 307 307 308 308 308 308
313 305 291 266 238 219 210 205 202 202 204 208 212 217 224 231 238 245 252 259 265 271 275 279 282 286 289 291 294 297 299 300 302 304 305 306 307 307 308 309 309 310 310
331 325 306 228 190 186 185 185 187 191 195 200 207 215 224 232 240 248 256 262 268 273 277 281 285 288 291 294 296 298 300 302 304 305 306 306 307 308 309 310 310 311 312
5 22 76 128 150 159 164 168 175 182 189 197 206 217 226 235 245 253 258 263 269 274 279 283 287 290 294 296 298 300 302 304 305 306 307 308 308 309 309 310 311 312 312
30 54 90 116 131 139 148 158 167 176 187 198 210 220 231 241 248 254 260 267 273 278 282 286 290 294 296 298 300 302 304 305 306 307 308 309 309 310 310 311 313 313 313
54 73 92 110 124 134 142 152 163 175 188 202 216 228 237 245 253 261 267 272 277 283 287 291 294 296 299 301 302 304 305 306 307 308 309 310 311 312 312 313 314 314 314
71 88 101 111 120 133 144 155 167 181 196 211 224 233 243 253 260 267 273 279 284 288 291 294 297 299 301 303 305 306 307 308 309 310 311 311 312 313 314 314 315 315 314
83 104 115 121 131 142 153 167 182 197 209 222 234 245 253 261 268 275 281 286 290 293 296 298 300 302 304 305 306 308 309 310 311 312 312 313 313 314 315 316 316 315 315
77 119 130 139 150 164 174 187 201 212 226 239 249 257 265 273 279 284 289 293 295 298 300 301 303 305 306 307 309 310 311 312 313 313 314 314 315 316 316 316 316 316 316
86 127 147 156 172 183 193 207 220 234 245 255 263 270 277 283 288 292 295 297 299 301 303 304 306 307 308 309 310 312 313 313 314 315 315 316 317 317 317 317 317 317 317
159 152 157 169 184 196 211 226 242 255 264 272 279 284 288 291 294 296 299 300 302 304 305 307 308 309 310 311 312 313 314 314 315 315 316 317 318 318 318 318 318 319 319
211 209 203 210 222 230 244 257 269 276 283 288 291 293 295 297 299 300 302 304 305 307 308 309 311 312 313 314 314 315 315 315 316 317 318 319 319 319 319 320 321 322 322
Height
5739 5741 5743 5745 5746 5748 5749 5750 5752 5755 5756 5757 5759 5761 5762 5764 5765 5766 5767 5768 5769 5769 5769 5768 5768 5768 5767 5767 5766 5765 5764 5763 5762 5761 5759 5758 5756 5754 5751 5749 5746 5744 5741
5731 5733 5735 5736 5737 5739 5740 5741 5743 5745 5747 5749 5751 5752 5753 5755 5757 5759 5760 5761 5762 5762 5761 5761 5761 5760 5760 5759 5758 5757 5756 5754 5753 5752 5750 5749 5748 5745 5742 5739 5735 5732 5729
5722 5723 5724 5726 5727 5728 5730 5732 5734 5735 5737 5739 5741 5742 5745 5748 5749 5751 5753 5754 5754 5754 5754 5754 5753 5753 5752 5751 5750 5749 5748 5746 5744 5742 5741 5739 5737 5736 5733 5729 5725 5721 5717
5711 5712 5713 5715 5716 5717 5719 5721 5723 5724 5726 5729 5731 5734 5737 5739 5741 5743 5744 5746 5747 5747 5747 5746 5746 5745 5744 5743 5742 5741 5739 5737 5735 5733 5731 5728 5726 5723 5722 5719 5714 5710 5706
5699 5700 5701 5702 5703 5705 5706 5708 5710 5713 5715 5718 5722 5725 5727 5730 5732 5734 5736 5738 5739 5739 5739 5739 5738 5737 5736 5735 5734 5732 5730 5728 5726 5724 5721 5718 5715 5712 5709 5707 5703 5698 5693
5687 5687 5687 5688 5689 5690 5692 5694 5697 5700 5703 5707 5711 5714 5718 5721 5723 5726 5728 5729 5731 5731 5732 5731 5730 5729 5728 5727 5725 5723 5721 5719 5716 5714 5711 5708 5704 5701 5697 5694 5691 5687 5681
5672 5672 5672 5673 5674 5675 5677 5680 5683 5687 5690 5695 5700 5704 5708 5712 5714 5717 5719 5721 5722 5723 5724 5723 5722 5721 5720 5718 5716 5714 5712 5709 5706 5703 5700 5696 5693 5688 5684 5680 5676 5672 5668
5657 5657 5657 5657 5659 5660 5662 5665 5668 5672 5677 5682 5687 5692 5697 5702 5705 5708 5710 5713 5714 5715 5715 5715 5714 5712 5711 5710 5707 5705 5702 5699 5696 5693 5689 5685 5680 5676 5671 5665 5660 5656 5653
5642 5641 5641 5641 5642 5644 5646 5649 5653 5657 5663 5668 5674 5681 5687 5691 5695 5698 5701 5704 5705 5706 5707 5707 5705 5704 5703 5701 5698 5696 5693 5689 5686 5682 5678 5674 5669 5663 5657 5651 5645 5639 5634
5628 5626 5624 5624 5624 5626 5629 5633 5637 5642 5648 5655 5662 5670 5676 5681 5685 5689 5692 5695 5697 5698 5698 5698 5697 5696 5694 5692 5689 5686 5683 5679 5675 5671 5667 5662 5656 5650 5644 5637 5630 5622 5615
5613 5610 5607 5606 5606 5608 5612 5616 5622 5627 5635 5643 5651 5659 5665 5671 5676 5680 5684 5686 5688 5690 5690 5690 5689 5687 5685 5683 5680 5676 5673 5669 5664 5660 5655 5649 5643 5637 5630 5623 5615 5607 5598
5598 5594 5590 5587 5587 5589 5593 5599 5606 5614 5623 5632 5640 5648 5655 5661 5667 5672 5676 5678 5680 5682 5682 5681 5680 5678 5676 5673 5670 5666 5662 5658 5653 5648 5642 5636 5630 5623 5615 5608 5599 5591 5581
5585 5579 5574 5570 5569 5572 5577 5584 5593 5603 5613 5622 5631 5639 5646 5653 5659 5664 5668 5671 5673 5673 5674 5673 5672 5669 5667 5664 5660 5656 5652 5647 5641 5636 5630 5623 5616 5608 5600 5592 5583 5574 5564
5574 5567 5561 5556 5555 5558 5564 5572 5582 5594 5604 5614 5623 5632 5639 5646 5652 5657 5661 5663 5665 5665 5665 5664 5663 5660 5657 5654 5650 5645 5641 5635 5629 5623 5616 5609 5601 5593 5585 5576 5567 5557 5547
5565 5557 5551 5548 5548 5551 5557 5565 5576 5587 5598 5608 5617 5626 5634 5640 5646 5651 5654 5656 5657 5657 5657 5656 5654 5651 5648 5644 5639 5635 5629 5624 5617 5610 5603 5595 5587 5578 5569 5560 5550 5539 5529
5559 5552 5547 5544 5545 5549 5555 5563 5573 5584 5595 5605 5614 5623 5630 5636 5641 5645 5647 5649 5650 5650 5649 5647 5644 5641 5638 5634 5629 5624 5618 5611 5604 5597 5589 5581 5572 5563 5553 5543 5532 5520 5508
5557 5551 5547 5545 5547 5551 5557 5564 5574 5584 5594 5604 5612 5620 5626 5632 5636 5639 5641 5642 5643 5642 5640 5638 5635 5632 5628 5623 5618 5612 5606 5599 5591 5583 5575 5566 5557 5547 5538 5528 5516 5502 5487
5559 5554 5551 5551 5553 5557 5562 5569 5577 5586 5595 5604 5611 5618 5623 5628 5631 5633 5635 5636 5635 5634 5632 5629 5626 5622 5617 5612 5607 5600 5593 5586 5578 5569 5560 5551 5542 5532 5522 5512 5501 5486 5470
5564 5560 5558 5558 5560 5564 5569 5575 5583 5590 5598 5605 5611 5616 5621 5624 5626 5628 5629 5628 5627 5625 5623 5620 5616 5611 5607 5601 5595 5588 5581 5573 5565 5555 5546 5536 5527 5516 5506 5495 5482 5468 5451
5569 5567 5566 5566 5568 5571 5576 5581 5587 5594 5600 5605 5610 5614 5617 5620 5621 5622 5622 5621 5619 5617 5614 5610 5606 5601 5595 5589 5583 5576 5569 5561 5552 5542 5532 5521 5510 5498 5485 5473 5461 5448 5434
5574 5574 5573 5574 5575 5578 5582 5586 5591 5596 5601 5605 5609 5612 5614 5615 5616 5616 5615 5613 5611 5608 5605 5600 5596 5590 5584 5577 5570 5563 5555 5547 5538 5528 5517 5505 5493 5480 5466 5452 5439 5427 5416
5579 5579 5579 5580 5582 5584 5587 5590 5594 5598 5601 5604 5606 5608 5609 5610 5610 5609 5608 5605 5603 5599 5595 5590 5585 5579 5572 5565 5558 5550 5541 5532 5523 5513 5501 5488 5475 5461 5447 5433 5421 5409 5400
5583 5583 5584 5585 5586 5588 5590 5593 5596 5598 5601 5602 5604 5604 5605 5605 5604 5602 5600 5597 5594 5590 5585 5580 5574 5567 5560 5553 5545 5537 5527 5517 5507 5496 5483 5470 5457 5443 5429 5416 5405 5396 5388
5585 5585 5586 5587 5589 5590 5592 5594 5596 5597 5599 5600 5600 5600 5600 5599 5597 5595 5592 5589 5585 5580 5575 5570 5563 5556 5549 5541 5533 5524 5514 5503 5492 5480 5466 5453 5439 5426 5414 5403 5394 5386 5379
5586 5587 5588 5589 5590 5591 5592 5593 5594 5595 5596 5596 5596 5595 5594 5592 5590 5587 5584 5580 5576 5571 5565 5559 5553 5546 5538 5529 5520 5510 5500 5488 5477 5464 5451 5438 5425 5412 5401 5392 5384 5377 5370
5587 5587 5588 5589 5590 5590 5591 5592 5592 5592 5592 5592 5591 5590 5588 5585 5583 5579 5575 5571 5566 5561 5555 5548 5542 5534 5525 5516 5506 5495 5483 5471 5460 5447 5435 5423 5411 5401 5392 5385 5377 5370 5363